Details for Delta Airlines at KSLC




Go Back


Latest METAR
Local Time

KSLC 181254Z 11006KT 10SM CLR 17/03 A2993 RMK AO2 SLP084 T01720033
18/09/2018, 07:17:15

Description
Results
Delta Airlines Logo
Number of Pilots based at KSLC
0 Pilots Based here
Number of Delta Airlines Flights Departed from KSLC
5 Flights Departed
Number of Delta Airlines Flights Arrived at KSLC
4 Flights Arrived
Number of Delta Airlines Schedules Departing from KSLC
347 Schedules
Number of Delta Airlines Schedules Arriving at KSLC
378 Schedules
Number of Delta Airlines Schedules Departing from KSLC availible today
164 Schedules Today
Number of Delta Airlines Schedules Arriving at KSLC availible today
152 Schedules Today
Average Landing Rate at KSLC
-367 fpm
Delta Airlines Average Landing Rate at KSLC
-360 fpm
Total Fuel Purchased at KSLC by Delta Airlines
24,305.75 kgs / 53,584.46 lbs

Pilots Based at KSLC


Pilot ID
Pilot Name
Pilot Rank
No. of Flights
No. of Flying Hours
There are no pilots assigned to this hub!   Will you be the first?
Content